Clearfield, PA

8:34 PM EDT on April 24, 2018 (GMT -0400)
Clearfield-Lawrence

Weather History for KFIG - September, 2012

Change the Weather History Date:

Friday, September 28, 2012

  Actual Average (KDUJ) Record (KDUJ)
Temperature  
Mean Temperature 54 °F -  
Max Temperature 57 °F 63 °F 77 °F (1971)
Min Temperature 51 °F 46 °F 31 °F (1965)
Degree Days  
Heating Degree Days 11    
Growing Degree Days 4 (Base 50)    
Moisture  
Dew Point 53 °F    
Average Humidity 92    
Maximum Humidity 100    
Minimum Humidity 72    
Precipitation  
Precipitation 0.03 in - - ()
Sea Level Pressure  
Sea Level Pressure 30.07 in    
Wind  
Wind Speed 5 mph (NNW)    
Max Wind Speed 12 mph    
Max Gust Speed -    
Visibility 6 miles    
Events Fog , Rain    
Averages and records for this station are not official NWS values.
T = Trace of Precipitation, MM = Missing Value Source: NWS Daily Summary

Daily Weather History Graph

Daily Weather History Graph

Search for Another Location

Airport or City:

Astronomy

Sep. 28, 2012 Rise Set
Actual Time 7:07 AM EDT 6:59 PM EDT
Civil Twilight 6:40 AM EDT 7:27 PM EDT
Nautical Twilight 6:08 AM EDT 7:59 PM EDT
Astronomical Twilight 5:35 AM EDT 8:31 PM EDT
Moon 6:01 PM EDT (9/28) 5:36 AM EDT (9/28)
Length of Visible Light 12h 46m
Length of Day
11h 52m
Waxing Gibbous, 98% of the Moon is Illuminated
Sep 28
Waxing Gibbous
Sep 29
Full
Oct 8
Last Quarter
Oct 15
New
Oct 21
First Quarter

Hourly Weather History & Observations

Time (EDT) Temp. Dew Point Humidity Pressure Visibility Wind Dir Wind Speed Gust Speed Precip Events Conditions
12:40 AM 57.2 °F 55.4 °F 94% 30.10 in 9.0 mi NNE 6.9 mph - 0.01 in   Overcast
12:51 AM 57.2 °F 55.4 °F 94% 30.10 in 8.0 mi NE 5.8 mph - 0.01 in   Overcast
12:54 AM 57.0 °F 55.9 °F 96% 30.10 in 7.0 mi NE 5.8 mph - 0.01 in   Overcast
1:12 AM 57.2 °F 55.4 °F 94% 30.09 in 8.0 mi NE 6.9 mph - N/A   Overcast
1:22 AM 57.2 °F 55.4 °F 94% 30.09 in 6.0 mi NE 5.8 mph - N/A   Overcast
1:35 AM 57.2 °F 55.4 °F 94% 30.09 in 6.0 mi NE 6.9 mph - N/A   Overcast
1:46 AM 57.2 °F 55.4 °F 94% 30.09 in 2.5 mi NNE 3.5 mph - N/A   Overcast
1:54 AM 55.9 °F 55.9 °F 100% 30.09 in 2.0 mi NNE 4.6 mph - N/A   Overcast
2:11 AM 55.4 °F 55.4 °F 100% 30.09 in 1.2 mi NE 4.6 mph - N/A   Overcast
2:41 AM 55.4 °F 55.4 °F 100% 30.09 in 0.8 mi NNE 3.5 mph - N/A   Overcast
2:50 AM 55.4 °F 55.4 °F 100% 30.08 in 1.5 mi NNE 3.5 mph - N/A   Overcast
2:54 AM 55.9 °F 55.9 °F 100% 30.08 in 1.8 mi Calm Calm - N/A   Overcast
3:14 AM 55.4 °F 55.4 °F 100% 30.08 in 2.0 mi ENE 3.5 mph - 0.00 in Rain Light Rain
3:21 AM 55.4 °F 55.4 °F 100% 30.08 in 1.8 mi ENE 3.5 mph - 0.00 in Rain Light Rain
3:54 AM 55.9 °F 55.9 °F 100% 30.06 in 0.8 mi NE 3.5 mph - 0.00 in   Mist
4:04 AM 55.4 °F 55.4 °F 100% 30.07 in 1.5 mi ENE 3.5 mph - N/A   Overcast
4:19 AM 55.4 °F 55.4 °F 100% 30.06 in 2.0 mi ENE 3.5 mph - N/A   Overcast
4:27 AM 55.4 °F 55.4 °F 100% 30.06 in 1.2 mi ENE 3.5 mph - N/A   Overcast
4:44 AM 55.4 °F 55.4 °F 100% 30.07 in 0.5 mi Calm Calm - N/A Fog Fog
4:54 AM 55.9 °F 55.9 °F 100% 30.06 in 0.5 mi Calm Calm - N/A Fog Fog
5:16 AM 55.4 °F 55.4 °F 100% 30.07 in 0.2 mi Calm Calm - N/A Fog Fog
5:54 AM 55.9 °F 55.9 °F 100% 30.06 in 0.5 mi Calm Calm - 0.02 in Fog , Rain Light Rain
6:22 AM 55.4 °F 55.4 °F 100% 30.07 in 1.2 mi Calm Calm - 0.00 in   Overcast
6:37 AM 55.4 °F 55.4 °F 100% 30.07 in 1.5 mi Calm Calm - 0.00 in   Overcast
6:47 AM 55.4 °F 55.4 °F 100% 30.07 in 0.2 mi Calm Calm - 0.00 in Fog Fog
6:54 AM 55.9 °F 55.9 °F 100% 30.07 in 0.2 mi Calm Calm - 0.00 in Fog Fog
7:02 AM 55.4 °F 55.4 °F 100% 30.07 in 0.2 mi Calm Calm - N/A Fog Fog
7:10 AM 55.4 °F 55.4 °F 100% 30.07 in 0.5 mi SSW 3.5 mph - N/A Fog Fog
7:17 AM 55.4 °F 55.4 °F 100% 30.07 in 1.0 mi SSW 3.5 mph - N/A   Mist
7:37 AM 57.2 °F 55.4 °F 94% 30.07 in 3.0 mi WSW 8.1 mph - N/A   Overcast
7:54 AM 55.9 °F 55.9 °F 100% 30.08 in 8.0 mi WSW 8.1 mph - N/A   Overcast
8:54 AM 55.0 °F 55.0 °F 100% 30.08 in 10.0 mi Variable 5.8 mph - N/A   Overcast
9:28 AM 57.2 °F 53.6 °F 88% 30.09 in 10.0 mi WSW 4.6 mph - N/A   Overcast
9:54 AM 57.0 °F 54.0 °F 89% 30.09 in 10.0 mi Variable 4.6 mph - N/A   Overcast
10:32 AM 57.2 °F 53.6 °F 88% 30.09 in 10.0 mi WSW 8.1 mph - N/A   Overcast
10:54 AM 57.0 °F 54.0 °F 89% 30.09 in 10.0 mi WSW 6.9 mph - N/A   Overcast
11:36 AM 55.4 °F 51.8 °F 88% 30.09 in 10.0 mi SW 10.4 mph - N/A   Overcast
11:45 AM 55.4 °F 51.8 °F 88% 30.08 in 10.0 mi WSW 11.5 mph - N/A   Overcast
11:54 AM 55.9 °F 50.0 °F 80% 30.09 in 10.0 mi SW 11.5 mph - N/A   Overcast
12:54 PM 57.0 °F 50.0 °F 77% 30.09 in 10.0 mi WSW 4.6 mph - N/A   Overcast
1:54 PM 57.0 °F 48.9 °F 74% 30.08 in 10.0 mi West 4.6 mph - N/A   Overcast
2:54 PM 57.0 °F 48.9 °F 74% 30.06 in 10.0 mi West 6.9 mph - N/A   Overcast
3:54 PM 57.0 °F 48.0 °F 72% 30.06 in 10.0 mi West 9.2 mph - N/A   Overcast
4:39 PM 57.2 °F 48.2 °F 72% 30.05 in 10.0 mi West 5.8 mph - N/A   Overcast
4:54 PM 57.9 °F 48.9 °F 72% 30.05 in 10.0 mi West 9.2 mph - N/A   Overcast
5:54 PM 55.9 °F 50.0 °F 80% 30.06 in 10.0 mi NNW 6.9 mph - N/A   Overcast
6:54 PM 55.0 °F 48.9 °F 80% 30.05 in 10.0 mi NW 3.5 mph - N/A   Overcast
7:21 PM 53.6 °F 50.0 °F 88% 30.05 in 10.0 mi North 3.5 mph - N/A   Overcast
7:54 PM 53.1 °F 48.9 °F 86% 30.06 in 10.0 mi NNW 4.6 mph - N/A   Scattered Clouds
8:23 PM 53.6 °F 50.0 °F 88% 30.06 in 10.0 mi North 3.5 mph - N/A   Mostly Cloudy
8:42 PM 53.6 °F 50.0 °F 88% 30.06 in 10.0 mi North 3.5 mph - N/A   Overcast
8:54 PM 53.1 °F 50.0 °F 89% 30.06 in 10.0 mi NNW 3.5 mph - N/A   Overcast
9:07 PM 53.6 °F 48.2 °F 82% 30.06 in 10.0 mi NNW 4.6 mph - N/A   Overcast
9:43 PM 51.8 °F 48.2 °F 88% 30.06 in 10.0 mi NNW 4.6 mph - N/A   Mostly Cloudy
9:54 PM 52.0 °F 48.9 °F 89% 30.06 in 10.0 mi North 3.5 mph - N/A   Scattered Clouds
10:54 PM 52.0 °F 48.0 °F 86% 30.07 in 10.0 mi Calm Calm - N/A   Overcast
11:54 PM 52.0 °F 48.0 °F 86% 30.07 in 10.0 mi NE 3.5 mph - N/A   Overcast